Weather History for KDXX - February, 2013

Change the Weather History Date:

Sunday, February 3, 2013

  Actual Average (KAQP) Record (KAQP)
Temperature  
Mean Temperature 12 °F -  
Max Temperature 15 °F 22 °F 42 °F (2005)
Min Temperature 8 °F 5 °F -18 °F (2004)
Degree Days  
Heating Degree Days 54    
Moisture  
Dew Point 7 °F    
Average Humidity 79    
Maximum Humidity 92    
Minimum Humidity 68    
Precipitation  
Precipitation 0.00 in - - ()
Sea Level Pressure  
Sea Level Pressure 30.02 in    
Wind  
Wind Speed 10 mph (North)    
Max Wind Speed 21 mph    
Max Gust Speed 25 mph    
Visibility 9 miles    
Events Snow    
Averages and records for this station are not official NWS values.
T = Trace of Precipitation, MM = Missing Value Source: NWS Daily Summary

Daily Weather History Graph

Daily Weather History Graph

Search for Another Location

Airport or City:

Trip Planner

Search our weather history database for the weather conditions in past years. The results will help you decide how hot, cold, wet, or windy it might be!

Date:

Astronomy

Feb. 03, 2013 Rise Set
Actual Time 7:41 AM CST 5:36 PM CST
Civil Twilight 7:10 AM CST 6:07 PM CST
Nautical Twilight 6:35 AM CST 6:42 PM CST
Astronomical Twilight 6:01 AM CST 7:16 PM CST
Moon 1:11 AM CST 11:12 AM CST
Length of Visible Light 10h 56m
Length of Day
9h 54m
Waning Gibbous, 48% of the Moon is Illuminated
Feb 3
Waning Gibbous
Feb 10
New
Feb 17
First Quarter
Feb 25
Full
Mar 4
Last Quarter

Hourly Weather History & Observations

Time (CST) Temp. Windchill Dew Point Humidity Pressure Visibility Wind Dir Wind Speed Gust Speed Precip Events Conditions
12:14 AM 12.2 °F -4.3 °F 8.6 °F 85% 30.09 in 10.0 mi NW 16.1 mph - N/A   Scattered Clouds
12:33 AM 12.2 °F -6.3 °F 6.8 °F 79% 30.10 in 10.0 mi NW 20.7 mph 25.3 mph N/A   Clear
12:54 AM 12.2 °F -5.3 °F 6.8 °F 79% 30.11 in 10.0 mi NW 18.4 mph - N/A   Clear
1:13 AM 10.4 °F -6.6 °F 6.8 °F 85% 30.11 in 10.0 mi NW 16.1 mph 23.0 mph N/A   Clear
1:33 AM 10.4 °F -5.4 °F 5.0 °F 79% 30.11 in 10.0 mi NW 13.8 mph - N/A   Clear
1:54 AM 10.4 °F -4.8 °F 5.0 °F 79% 30.10 in 10.0 mi NW 12.7 mph - N/A   Clear
2:14 AM 10.4 °F -6.0 °F 3.2 °F 73% 30.11 in 10.0 mi NW 15.0 mph 18.4 mph N/A   Clear
2:33 AM 8.6 °F -6.3 °F 3.2 °F 79% 30.13 in 10.0 mi NW 11.5 mph - N/A   Clear
2:54 AM 8.6 °F -4.7 °F 3.2 °F 79% 30.12 in 10.0 mi WNW 9.2 mph - N/A   Scattered Clouds
3:14 AM 8.6 °F 0.1 °F 3.2 °F 79% 30.11 in 10.0 mi West 4.6 mph - N/A   Scattered Clouds
3:33 AM 8.6 °F -3.7 °F 3.2 °F 79% 30.11 in 10.0 mi West 8.1 mph - N/A   Mostly Cloudy
3:54 AM 8.6 °F -1.3 °F 3.2 °F 79% 30.10 in 10.0 mi West 5.8 mph - N/A   Mostly Cloudy
4:13 AM 8.6 °F -3.7 °F 3.2 °F 79% 30.10 in 10.0 mi West 8.1 mph - N/A   Scattered Clouds
4:34 AM 8.6 °F -3.7 °F 3.2 °F 79% 30.10 in 10.0 mi West 8.1 mph - N/A   Mostly Cloudy
4:53 AM 8.6 °F -2.6 °F 3.2 °F 79% 30.10 in 10.0 mi West 6.9 mph - N/A   Overcast
5:14 AM 10.4 °F 0.8 °F 5.0 °F 79% 30.09 in 10.0 mi WNW 5.8 mph - N/A   Mostly Cloudy
5:34 AM 10.4 °F -0.4 °F 5.0 °F 79% 30.08 in 10.0 mi West 6.9 mph - N/A   Overcast
5:53 AM 10.4 °F 0.8 °F 5.0 °F 79% 30.07 in 10.0 mi West 5.8 mph - N/A   Overcast
6:14 AM 10.4 °F 0.8 °F 5.0 °F 79% 30.08 in 10.0 mi West 5.8 mph - N/A   Overcast
6:34 AM 10.4 °F 0.8 °F 6.8 °F 85% 30.08 in 10.0 mi West 5.8 mph - N/A   Overcast
6:53 AM 12.2 °F 1.7 °F 6.8 °F 79% 30.08 in 10.0 mi West 6.9 mph - N/A   Overcast
7:14 AM 12.2 °F 1.7 °F 6.8 °F 79% 30.07 in 10.0 mi West 6.9 mph - N/A   Overcast
7:34 AM 12.2 °F 2.9 °F 6.8 °F 79% 30.08 in 10.0 mi WNW 5.8 mph - N/A   Overcast
7:53 AM 12.2 °F 2.9 °F 6.8 °F 79% 30.07 in 10.0 mi NW 5.8 mph - N/A   Overcast
8:33 AM 14.0 °F 5.1 °F 6.8 °F 73% 30.07 in 10.0 mi WNW 5.8 mph - N/A   Overcast
8:54 AM 14.0 °F 6.5 °F 6.8 °F 73% 30.08 in 10.0 mi NW 4.6 mph - N/A   Overcast
9:14 AM 14.0 °F 5.1 °F 6.8 °F 73% 30.08 in 10.0 mi NW 5.8 mph - N/A   Overcast
9:33 AM 14.0 °F 5.1 °F 6.8 °F 73% 30.08 in 10.0 mi NNW 5.8 mph - N/A   Overcast
9:54 AM 14.0 °F 5.1 °F 6.8 °F 73% 30.08 in 10.0 mi NNW 5.8 mph - N/A   Overcast
10:14 AM 14.0 °F 5.1 °F 6.8 °F 73% 30.08 in 10.0 mi NNW 5.8 mph - N/A   Overcast
10:33 AM 14.0 °F 6.5 °F 6.8 °F 73% 30.07 in 10.0 mi North 4.6 mph - N/A   Overcast
10:54 AM 14.0 °F - 6.8 °F 73% 30.07 in 10.0 mi Calm Calm - N/A   Overcast
11:13 AM 14.0 °F - 6.8 °F 73% 30.07 in 10.0 mi Calm Calm - N/A   Overcast
11:34 AM 14.0 °F - 6.8 °F 73% 30.05 in 10.0 mi Calm Calm - N/A   Overcast
11:54 AM 15.8 °F - 6.8 °F 68% 30.03 in 10.0 mi Calm Calm - N/A   Overcast
12:13 PM 15.8 °F - 6.8 °F 68% 30.02 in 10.0 mi Calm Calm - N/A   Overcast
12:34 PM 15.8 °F 8.6 °F 8.6 °F 73% 30.02 in 10.0 mi ENE 4.6 mph - N/A   Overcast
12:54 PM 15.8 °F 8.6 °F 8.6 °F 73% 30.00 in 10.0 mi ESE 4.6 mph - N/A   Mostly Cloudy
1:13 PM 15.8 °F 8.6 °F 8.6 °F 73% 29.99 in 10.0 mi ESE 4.6 mph - N/A   Overcast
1:34 PM 15.8 °F 8.6 °F 8.6 °F 73% 29.98 in 10.0 mi ESE 4.6 mph - N/A   Overcast
1:54 PM 15.8 °F 8.6 °F 8.6 °F 73% 29.97 in 10.0 mi ESE 4.6 mph - N/A   Mostly Cloudy
2:13 PM 15.8 °F 7.2 °F 8.6 °F 73% 29.96 in 10.0 mi ESE 5.8 mph - N/A   Mostly Cloudy
2:34 PM 15.8 °F 6.1 °F 8.6 °F 73% 29.96 in 10.0 mi East 6.9 mph - N/A   Scattered Clouds
2:53 PM 15.8 °F 7.2 °F 8.6 °F 73% 29.95 in 10.0 mi ESE 5.8 mph - N/A   Scattered Clouds
3:13 PM 15.8 °F 6.1 °F 10.4 °F 79% 29.94 in 10.0 mi ESE 6.9 mph - N/A   Scattered Clouds
3:34 PM 15.8 °F 6.1 °F 10.4 °F 79% 29.94 in 10.0 mi East 6.9 mph - N/A   Clear
3:53 PM 15.8 °F 6.1 °F 10.4 °F 79% 29.95 in 10.0 mi East 6.9 mph - N/A   Mostly Cloudy
4:13 PM 15.8 °F 6.1 °F 10.4 °F 79% 29.95 in 10.0 mi East 6.9 mph - N/A   Scattered Clouds
4:34 PM 15.8 °F 6.1 °F 10.4 °F 79% 29.94 in 10.0 mi East 6.9 mph - N/A   Clear
4:53 PM 15.8 °F 6.1 °F 10.4 °F 79% 29.94 in 10.0 mi ESE 6.9 mph - N/A   Clear
5:13 PM 15.8 °F 6.1 °F 8.6 °F 73% 29.93 in 10.0 mi East 6.9 mph - N/A   Clear
5:34 PM 15.8 °F 5.1 °F 10.4 °F 79% 29.93 in 2.5 mi ESE 8.1 mph - N/A Snow Light Snow
5:53 PM 15.8 °F 3.4 °F 10.4 °F 79% 29.93 in 1.8 mi East 10.4 mph - N/A Snow Light Snow
6:13 PM 14.0 °F 1.2 °F 10.4 °F 86% 29.93 in 2.0 mi East 10.4 mph - N/A Snow Light Snow
6:34 PM 14.0 °F 2.0 °F 10.4 °F 86% 29.93 in 1.8 mi ENE 9.2 mph - N/A Snow Light Snow
6:53 PM 14.0 °F 2.0 °F 10.4 °F 86% 29.93 in 1.8 mi ENE 9.2 mph - N/A Snow Light Snow
7:14 PM 14.0 °F 1.2 °F 10.4 °F 86% 29.93 in 7.0 mi ENE 10.4 mph - N/A Snow Light Snow
7:33 PM 12.2 °F -1.0 °F 10.4 °F 92% 29.93 in 10.0 mi ENE 10.4 mph - N/A   Mostly Cloudy
7:54 PM 12.2 °F -1.0 °F 8.6 °F 85% 29.95 in 10.0 mi NE 10.4 mph - N/A   Overcast
8:14 PM 12.2 °F -1.8 °F 8.6 °F 85% 29.95 in 10.0 mi NNE 11.5 mph - N/A   Overcast
8:33 PM 12.2 °F -1.8 °F 8.6 °F 85% 29.96 in 10.0 mi NNE 11.5 mph - N/A   Overcast
8:54 PM 12.2 °F -1.0 °F 8.6 °F 85% 29.95 in 10.0 mi NE 10.4 mph - N/A   Overcast
9:14 PM 12.2 °F 0.7 °F 8.6 °F 85% 29.96 in 10.0 mi NNE 8.1 mph - N/A   Overcast
9:33 PM 12.2 °F 1.7 °F 8.6 °F 85% 29.96 in 10.0 mi NE 6.9 mph - N/A   Overcast
9:53 PM 12.2 °F 2.9 °F 8.6 °F 85% 29.95 in 10.0 mi ENE 5.8 mph - N/A   Overcast
10:14 PM 12.2 °F 2.9 °F 8.6 °F 85% 29.96 in 10.0 mi NE 5.8 mph - N/A   Overcast
10:33 PM 12.2 °F 2.9 °F 8.6 °F 85% 29.96 in 10.0 mi NE 5.8 mph - N/A   Overcast
10:53 PM 12.2 °F -0.2 °F 8.6 °F 85% 29.96 in 10.0 mi NNE 9.2 mph - N/A   Overcast
11:14 PM 12.2 °F -0.2 °F 8.6 °F 85% 29.96 in 10.0 mi NNE 9.2 mph - N/A   Overcast
11:33 PM 12.2 °F -0.2 °F 8.6 °F 85% 29.97 in 10.0 mi NNE 9.2 mph - N/A   Overcast
11:53 PM 12.2 °F -0.2 °F 8.6 °F 85% 29.98 in 10.0 mi NNE 9.2 mph - N/A   Overcast